This is the latest recevied weather packets stored in our database for station/object N7IGG. If no packets are shown the sender has not sent any weather packets the latest 1 day(s).
| Time | Temp. | Humidity | Pressure | Rain* | Wind** | Luminosity | Snow |
|---|---|---|---|---|---|---|---|
| 1778090214 | 11.11° C | 95% | 1020.4 hPa | 0 mm | - | 106 W/m² | - |
| 1778088998 | 11.11° C | 96% | 1020.4 hPa | 0 mm | - | 147 W/m² | - |
| 1778085666 | 11.11° C | 97% | 1020.5 hPa | 0 mm | - | 40 W/m² | - |
| 1778083240 | 11.11° C | 97% | 1019.7 hPa | 0 mm | - | 62 W/m² | - |
| 1778080620 | 11.11° C | 97% | 1020.2 hPa | 0 mm | - | 31 W/m² | - |
| 1778080316 | 11.11° C | 97% | 1020.2 hPa | 0 mm | - | 28 W/m² | - |
| 1778080013 | 11.11° C | 97% | 1020.1 hPa | 0 mm | - | 38 W/m² | - |
| 1778079407 | 11.11° C | 97% | 1019.9 hPa | 0.51 mm | - | 35 W/m² | - |
| 1778078498 | 11.11° C | 96% | 1020 hPa | 0 mm | - | 17 W/m² | - |
| 1778076685 | 11.11° C | 95% | 1019.6 hPa | 0 mm | - | 9 W/m² | - |
| 1778076382 | 11.11° C | 95% | 1019.9 hPa | 0 mm | - | 9 W/m² | - |
| 1778075776 | 11.11° C | 95% | 1019.8 hPa | 0 mm | - | 9 W/m² | - |
| 1778075169 | 11.11° C | 94% | 1019.8 hPa | 0 mm | - | 7 W/m² | - |
| 1778074259 | 11.11° C | 94% | 1019.8 hPa | 0 mm | - | 5 W/m² | - |
| 1778073956 | 11.11° C | 94% | 1019.8 hPa | 0 mm | - | 4 W/m² | - |
| 1778071837 | 11.67° C | 93% | 1019.3 hPa | 0 mm | - | 0 W/m² | - |
| 1778068811 | 11.67° C | 92% | 1018.9 hPa | 0 mm | - | 0 W/m² | - |
| 1778068207 | 11.67° C | 92% | 1018.9 hPa | 0 mm | - | 0 W/m² | - |
| 1778066996 | 11.67° C | 92% | 1018.6 hPa | 0 mm | - | 0 W/m² | - |
| 1778066089 | 11.67° C | 92% | 1018.5 hPa | 0 mm | - | 0 W/m² | - |
| 1778064876 | 11.67° C | 92% | 1018.6 hPa | 0 mm | - | 0 W/m² | - |
| 1778062152 | 11.67° C | 93% | 1018.3 hPa | 0 mm | - | 0 W/m² | - |
| 1778061850 | 11.67° C | 92% | 1018.3 hPa | 0 mm | - | 0 W/m² | - |
| 1778061548 | 11.67° C | 92% | 1018.3 hPa | 0 mm | - | 0 W/m² | - |
| 1778060641 | 11.67° C | 91% | 1018.1 hPa | 0 mm | - | 0 W/m² | - |
* Rain latest hour (hover to see other rain measurements)
** Current wind speed in m/s (hover to see current wind gust speed)